BCS943 LIPZ-LIMC

Flight info

Callsign BCS943
Flight time N/A
Altitude 19000
Route VIC L615 IBUGO/N0404F180 L615 OSKOR/N0396F170 DCT LEGLO DCT PEXUG
Aircraft R722/M-SDFGRWY/S

Departure

Time 2026-05-06 16:50
Airport Venice Marco Polo Airport (LIPZ)

Arrival

Time N/A
Airport Milan Malpensa International Airport (LIMC)
Time Latitude Longitude Altitude Speed Heading
2026-05-06 16:25 45.50051 12.33915 19 ft 0 kts 312°
2026-05-06 16:39 45.50043 12.33929 19 ft 4 kts 307°
2026-05-06 16:40 45.50030 12.33962 21 ft 4 kts 288°
2026-05-06 16:40 45.50027 12.33998 22 ft 4 kts 258°
2026-05-06 16:40 45.50037 12.34022 21 ft 1 kts 222°
2026-05-06 16:40 45.50041 12.34026 21 ft 0 kts 222°
2026-05-06 16:46 45.50037 12.34022 21 ft 3 kts 221°
2026-05-06 16:47 45.50008 12.33984 21 ft 9 kts 221°
2026-05-06 16:47 45.49949 12.33910 19 ft 14 kts 221°
2026-05-06 16:47 45.49866 12.33838 19 ft 14 kts 196°
2026-05-06 16:47 45.49763 12.33806 19 ft 16 kts 193°
2026-05-06 16:48 45.49657 12.33735 20 ft 18 kts 223°
2026-05-06 16:48 45.49586 12.33652 19 ft 11 kts 225°
2026-05-06 16:48 45.49528 12.33604 21 ft 9 kts 177°
2026-05-06 16:48 45.49472 12.33659 19 ft 12 kts 135°
2026-05-06 16:49 45.49434 12.33720 19 ft 14 kts 123°
2026-05-06 16:49 45.49459 12.33833 18 ft 6 kts 43°
2026-05-06 16:49 45.49463 12.33838 18 ft 6 kts 43°
2026-05-06 16:49 45.49640 12.34068 16 ft 64 kts 42°
2026-05-06 16:50 45.50135 12.34704 19 ft 128 kts 40°
2026-05-06 16:50 45.50904 12.35732 205 ft 164 kts 45°
2026-05-06 16:50 45.51791 12.36923 633 ft 186 kts 45°
2026-05-06 16:50 45.52449 12.37828 884 ft 204 kts 46°
2026-05-06 16:51 45.53680 12.39928 1854 ft 200 kts 57°
2026-05-06 16:51 45.54313 12.41801 2157 ft 220 kts 83°
2026-05-06 16:51 45.54109 12.44009 2600 ft 221 kts 112°
2026-05-06 16:51 45.53624 12.45683 4249 ft 175 kts 116°
2026-05-06 16:52 45.53285 12.47575 3929 ft 232 kts 95°
2026-05-06 16:52 45.53310 12.50047 4147 ft 240 kts 88°
2026-05-06 16:52 45.53477 12.52000 6056 ft 166 kts 82°
2026-05-06 16:52 45.53705 12.53655 6559 ft 183 kts 82°
2026-05-06 16:53 45.53949 12.55453 7042 ft 180 kts 82°
2026-05-06 16:53 45.54150 12.57155 7678 ft 167 kts 86°
2026-05-06 16:53 45.54269 12.58811 7925 ft 178 kts 99°
2026-05-06 16:53 45.53994 12.60593 7358 ft 190 kts 110°
2026-05-06 16:54 45.53692 12.62390 7131 ft 176 kts 107°
2026-05-06 16:54 45.53453 12.64092 6557 ft 183 kts 106°
2026-05-06 16:54 45.53194 12.65919 5936 ft 186 kts 105°